Helicity
121 135 232 231 218 203 220 230 184 126 97 76 67 57 31 29 19 11 14 23 24 20 12 6 9 4 0 2 3 5 8 8 6 13 6 -2 1 2 5 9 15 19 27
47 134 156 205 239 225 207 185 205 186 168 130 117 110 99 77 56 37 31 21 27 18 17 21 19 12 7 7 6 10 16 17 14 9 13 9 -1 -5 -3 3 7 16 25
59 42 99 128 164 213 229 215 216 203 177 167 137 136 129 119 99 78 60 42 34 28 24 21 30 40 41 49 16 8 21 25 24 17 12 11 9 0 -6 2 6 9 12
86 51 52 82 160 144 187 240 232 223 201 191 167 148 148 141 121 110 83 68 62 49 35 34 27 44 46 47 54 46 25 25 22 20 15 13 8 5 0 6 6 11 10
57 121 133 59 65 105 155 190 254 265 239 212 192 150 133 146 133 112 112 85 76 68 58 56 58 74 66 62 58 44 38 23 23 20 21 19 18 12 5 3 7 12 7
172 131 106 118 65 22 82 134 169 288 264 254 196 178 150 127 116 110 109 95 84 80 80 78 70 101 129 135 104 71 39 39 27 23 26 25 26 25 20 18 16 6 4
272 171 108 132 74 61 60 60 108 187 322 315 242 260 195 179 169 136 108 110 123 117 129 133 120 106 101 153 163 161 145 37 51 68 75 56 49 49 38 31 21 18 18
236 240 198 159 129 142 38 -41 -34 39 89 323 289 281 259 213 210 269 201 164 164 156 164 189 190 195 155 138 193 235 241 229 137 131 146 143 134 127 122 104 94 80 72
210 255 242 197 161 138 126 59 -17 -46 8 142 279 350 360 325 311 230 343 224 202 231 216 203 206 211 212 194 191 231 283 305 267 218 159 149 130 116 111 109 85 91 76
176 175 246 233 199 178 165 128 83 48 -49 58 155 252 257 363 440 344 67 121 169 203 223 200 208 227 247 237 238 275 281 256 255 206 188 165 128 116 96 89 91 82 82
147 143 131 183 193 133 172 198 105 119 197 80 103 125 202 185 247 252 462 226 120 167 177 195 203 223 243 234 203 228 263 236 204 201 150 146 126 112 98 63 64 61 60
139 150 130 157 172 172 199 207 153 131 98 81 36 107 100 150 175 189 190 140 235 167 148 156 178 181 184 192 201 204 227 218 193 166 149 108 104 80 75 74 67 46 28
145 149 140 142 119 126 163 179 157 124 120 88 73 75 74 73 43 55 187 214 180 118 104 141 149 167 168 156 158 186 184 181 165 134 115 89 83 80 80 85 70 65 57
138 134 138 134 136 143 153 163 143 116 139 140 101 114 137 150 134 69 77 116 192 130 105 92 133 172 144 152 165 158 133 167 159 149 141 121 103 98 103 103 103 97 93
118 130 136 135 140 135 126 121 140 124 111 120 126 122 147 184 176 178 147 127 106 93 79 112 117 135 149 147 158 116 112 136 126 138 132 116 111 95 99 94 93 94 91
134 128 121 116 127 137 129 120 118 127 120 120 123 91 110 124 127 129 154 178 182 155 121 139 147 158 149 129 118 103 92 91 83 116 114 101 106 102 93 89 95 94 92
142 141 136 131 129 125 121 117 123 129 131 124 112 122 114 117 133 149 122 129 159 179 193 190 197 182 162 162 127 106 94 82 78 107 98 95 95 91 91 84 85 95 97
118 120 127 126 121 126 129 125 120 115 114 117 116 103 108 102 114 123 140 141 116 107 120 159 171 157 139 123 126 124 106 86 94 86 91 85 86 80 84 95 102 100 100
116 115 117 122 125 119 119 120 121 116 107 105 111 119 117 105 95 101 116 124 130 119 93 87 124 111 102 91 126 88 93 101 82 94 80 70 78 94 100 107 95 89 91
125 112 105 109 110 112 116 121 124 121 114 111 112 111 117 124 122 111 99 95 92 101 106 117 110 97 94 101 90 97 112 85 106 64 53 85 109 110 101 84 83 95 102
133 130 126 116 110 110 104 102 103 104 108 119 123 117 99 95 96 100 108 102 95 96 94 93 92 96 98 100 102 81 82 101 110 36 96 113 97 93 77 87 96 97 107
121 124 130 134 133 122 102 101 92 98 105 116 119 111 112 101 97 96 103 103 84 104 110 113 115 109 104 89 66 69 72 109 75 8 61 137 81 93 95 96 108 132 128
101 98 97 107 120 119 112 104 91 90 87 87 90 96 99 89 101 101 104 90 84 73 74 94 96 92 104 81 58 57 49 42 43 92 34 58 61 66 94 114 128 118 111
99 104 107 95 94 100 102 100 95 99 93 82 74 71 76 79 76 69 73 77 73 69 65 59 54 60 47 43 33 56 62 50 32 34 10 -17 48 80 91 95 90 113 139
92 84 85 97 94 109 106 100 98 102 100 94 89 86 85 86 75 66 69 74 73 69 63 67 73 71 73 79 88 71 58 51 40 26 39 10 8 55 72 60 91 124 189
84 88 96 75 75 89 108 106 99 106 105 100 96 91 70 83 81 79 88 90 97 98 88 88 88 88 98 98 103 92 83 70 60 27 35 70 53 6 -11 65 140 113 111
Wind_Speed
31 34 37 35 35 35 36 37 35 31 27 26 24 21 13 14 14 15 18 21 22 24 25 28 30 32 34 35 37 40 43 45 46 46 47 47 48 48 47 47 47 46 44
33 41 37 39 39 41 43 39 36 34 32 27 25 23 20 19 18 17 17 19 22 24 25 28 28 30 31 31 32 34 37 40 42 44 45 45 45 45 45 45 44 43 43
29 32 36 42 41 43 44 44 43 41 36 32 29 28 25 24 22 20 20 21 22 25 27 28 29 31 33 36 32 30 31 34 37 39 41 42 43 43 42 41 41 42 41
39 40 40 38 46 46 44 44 44 43 42 40 37 36 33 31 28 27 27 26 27 29 30 30 29 31 32 34 34 35 29 30 32 34 36 38 39 40 41 40 38 38 38
42 41 45 39 40 44 48 45 45 44 44 46 44 42 40 37 35 34 32 31 31 32 33 34 31 31 32 33 35 34 33 29 28 30 31 33 34 35 37 38 38 37 36
44 44 48 43 40 40 41 46 44 43 45 50 50 45 43 44 41 40 39 37 35 34 34 36 29 29 33 36 36 37 35 30 28 28 29 30 32 33 33 34 36 36 37
43 46 45 40 41 43 39 39 38 48 54 52 48 47 40 38 41 45 43 38 36 37 34 36 32 30 33 36 38 38 40 33 29 31 32 31 33 35 36 36 36 36 37
38 39 42 41 41 46 45 42 38 39 48 48 51 48 52 46 42 44 44 37 37 37 34 34 33 33 32 32 36 37 37 34 29 28 29 31 34 35 36 37 38 37 38
37 36 34 35 40 41 45 43 43 42 39 47 43 45 51 48 44 41 48 42 38 38 36 34 33 33 32 32 35 36 37 35 34 34 34 34 37 40 41 39 40 40 41
35 38 38 35 40 42 42 44 41 41 38 42 40 41 42 41 53 54 44 37 37 37 36 35 33 34 33 32 34 36 38 39 39 38 39 40 41 43 45 45 45 46 47
33 33 36 38 39 40 40 38 40 39 42 40 41 41 42 42 43 51 53 51 36 41 39 34 33 33 35 36 37 40 41 42 44 44 45 45 47 48 49 52 52 52 54
35 36 34 34 36 39 40 40 39 37 31 35 41 44 42 45 49 53 51 55 46 42 37 33 34 35 35 38 40 43 44 47 48 50 51 52 54 55 56 57 59 58 60
35 36 35 33 32 32 36 35 35 37 36 39 41 41 40 41 44 49 58 58 55 48 43 42 36 36 38 39 44 48 49 50 51 55 57 58 60 62 63 62 63 64 63
35 35 35 34 32 33 31 31 31 34 35 37 40 42 35 37 39 42 44 49 55 50 42 46 40 41 42 43 49 53 54 56 57 60 62 64 65 65 65 65 64 65 65
35 35 35 35 34 33 33 33 33 33 38 37 37 35 35 37 40 40 42 43 46 53 52 48 51 47 47 52 54 57 59 62 63 65 67 68 66 68 67 68 68 67 68
36 35 35 35 35 35 35 35 34 34 33 36 35 34 38 39 42 39 42 49 52 55 54 50 51 50 53 54 58 62 63 65 66 69 70 69 70 70 71 71 71 71 72
38 38 38 38 38 37 36 34 35 35 36 36 36 36 37 40 42 44 44 46 47 47 56 53 51 52 55 62 63 65 65 67 66 70 71 72 73 73 72 72 71 71 73
40 40 40 40 39 38 39 38 37 37 37 37 38 38 39 38 39 39 39 43 45 41 42 55 48 51 55 57 61 66 67 66 70 70 73 74 70 69 68 70 74 77 77
43 43 42 42 42 42 41 41 40 40 40 39 39 40 40 41 41 41 41 41 41 40 40 42 50 51 53 57 63 63 68 69 69 71 69 64 64 68 70 78 79 77 77
45 45 46 46 46 45 45 45 44 44 42 42 43 43 43 44 44 45 44 44 43 44 44 47 53 57 57 58 62 68 72 71 74 68 59 63 70 75 78 75 75 75 75
47 48 49 48 49 49 48 47 47 45 45 45 45 45 44 45 47 48 49 49 48 49 50 52 54 58 62 65 68 67 73 78 76 60 68 74 78 77 72 73 73 74 77
51 51 52 53 53 52 52 51 50 49 48 48 48 47 48 50 49 48 48 48 49 52 55 57 60 63 64 68 68 72 74 78 76 62 85 87 78 75 74 75 76 84 86
55 57 57 58 60 58 58 58 57 54 53 52 51 51 51 49 50 52 53 53 55 57 58 59 64 64 68 67 71 75 75 77 82 86 86 85 74 80 75 77 83 81 74
58 59 60 60 61 61 61 63 63 62 60 58 56 55 54 54 53 53 54 56 58 59 58 59 62 66 67 67 70 71 74 78 79 79 72 88 76 80 80 81 72 68 68
61 61 62 63 64 64 61 62 62 64 65 64 60 59 58 59 57 56 57 61 61 60 59 62 65 68 69 70 69 74 78 81 83 75 71 75 77 88 82 74 69 63 72
68 67 68 65 65 66 65 64 64 64 66 65 61 58 58 59 59 59 60 62 67 66 63 63 63 63 65 67 67 65 68 77 80 81 63 82 82 81 84 69 67 81 85
Wind_Direction
284 276 272 272 272 275 274 270 271 274 279 281 285 293 301 314 326 340 346 349 356 359 358 12 19 26 22 21 22 26 30 31 35 39 39 39 42 39 33 31 33 29 21
285 275 274 273 273 271 271 273 272 273 275 278 281 286 291 297 307 318 333 342 341 341 340 347 360 12 10 10 13 18 25 29 32 36 39 40 38 40 36 29 25 23 22
284 290 284 272 274 273 271 270 271 271 273 275 276 280 285 289 296 306 317 327 332 328 327 332 342 353 349 345 358 7 17 22 28 33 37 41 42 39 36 23 19 18 17
286 283 287 290 275 272 272 270 270 267 269 271 274 277 279 282 288 297 303 309 312 315 318 321 330 337 336 333 333 344 2 8 17 24 30 35 39 42 44 22 10 6 0
282 280 277 284 278 279 269 269 269 269 270 270 271 274 278 279 283 288 293 299 303 306 308 309 319 327 329 329 327 330 340 355 5 11 15 21 24 29 33 34 11 354 355
282 282 276 283 281 280 279 270 268 273 271 273 269 272 277 278 281 283 286 290 297 300 302 301 311 321 324 325 323 321 325 338 347 352 357 2 0 2 7 14 15 17 6
289 280 285 294 281 277 280 282 277 269 271 275 271 269 275 286 283 281 283 288 291 294 300 300 302 308 317 323 323 322 322 322 334 338 341 343 342 336 336 344 344 347 349
299 303 292 298 284 277 274 281 279 275 271 281 267 266 267 274 283 287 284 286 288 291 296 297 299 304 311 321 323 324 324 331 338 344 342 338 336 336 339 341 347 342 337
300 302 307 306 289 286 280 286 279 279 279 276 278 273 262 269 275 280 285 284 285 287 292 293 296 302 309 315 318 320 320 323 327 327 328 330 326 321 322 327 328 332 332
300 297 295 299 296 293 288 288 288 282 284 277 279 275 274 275 270 273 269 291 291 289 292 288 293 299 303 311 316 318 317 316 318 319 320 319 317 316 314 316 316 317 317
303 302 296 295 292 295 295 296 294 287 278 281 281 275 275 274 274 268 275 277 290 289 285 291 297 297 302 303 305 310 313 312 313 312 311 313 313 310 310 308 309 309 309
299 301 305 304 300 293 295 291 293 294 297 288 281 276 277 271 272 274 271 273 279 288 289 293 299 296 300 300 305 305 308 310 308 309 308 306 305 305 305 306 305 305 304
298 299 301 305 306 307 299 299 295 292 287 284 284 285 283 280 277 277 271 273 273 277 283 287 292 298 298 298 300 301 305 307 307 306 304 303 302 301 302 302 301 301 303
299 301 303 304 306 305 305 304 303 299 294 290 288 288 295 294 292 285 280 275 273 274 279 279 288 290 293 297 297 300 301 303 304 304 302 300 299 299 300 300 301 301 301
299 302 303 302 305 305 303 301 301 300 291 292 296 299 298 296 296 294 290 284 279 276 275 280 277 285 293 292 297 298 299 299 300 300 299 298 300 299 299 299 299 299 299
298 299 300 301 302 305 303 301 301 299 299 298 300 300 294 295 290 297 292 286 283 279 278 281 283 287 291 294 296 298 298 298 297 299 298 299 299 299 298 298 298 298 298
294 296 298 299 299 301 302 302 301 300 298 298 298 299 300 296 296 294 294 290 295 294 285 289 293 295 294 294 296 297 298 298 299 300 298 298 298 298 298 298 298 298 298
292 294 295 296 298 298 299 299 299 300 299 297 296 296 297 299 300 301 302 299 295 299 298 290 298 299 298 300 300 298 297 298 298 298 298 298 299 300 300 299 298 297 297
289 291 292 293 293 295 296 297 298 298 298 298 299 298 298 297 295 297 298 299 299 301 302 300 299 300 300 300 299 298 297 298 299 301 300 301 302 301 299 297 297 298 298
289 289 289 290 290 291 292 294 295 295 296 297 297 296 296 296 296 296 296 297 297 298 300 301 298 298 300 302 302 298 297 298 298 300 302 303 302 300 299 299 299 300 300
291 290 289 289 289 289 290 291 292 292 293 293 294 295 295 295 294 294 294 295 296 297 297 297 298 297 297 298 299 301 298 296 298 301 300 300 300 300 301 301 302 302 301
290 290 289 288 287 288 288 288 289 289 290 291 291 293 294 294 293 294 295 295 296 296 296 297 296 295 297 296 299 299 299 298 295 299 297 297 300 300 302 302 302 301 301
289 287 287 287 285 286 286 285 286 287 286 287 289 290 291 292 293 293 293 294 294 294 295 295 294 296 296 298 297 297 297 296 294 297 297 295 301 299 303 305 304 304 305
289 289 288 287 286 286 287 285 284 284 284 284 286 287 289 290 291 292 292 293 294 295 296 296 295 296 297 298 298 298 299 299 299 299 300 293 300 300 304 306 307 307 307
289 289 289 288 287 287 289 287 286 283 283 283 283 284 286 287 290 290 291 291 293 295 297 297 297 297 297 297 298 298 297 297 297 299 302 300 302 302 304 304 306 308 309
286 286 286 287 287 287 288 288 286 284 282 282 283 283 284 286 287 288 289 290 291 294 297 298 299 300 300 300 301 301 300 297 297 298 303 301 302 305 301 304 306 306 308